Regional Weather Roundup
Issued by NWS

Home | Current Version | Previous Version | Text Only | Print | Product List | Glossary Off
Versions: 1 2 3 4 5 6 7 8 9 10 11 12 13 14 15 16 17 18 19 20 21 22 23 24 25 26 27 28 29 30 31 32 33 34 35 36 37 38 39 40 41 42 43 44 45 46 47 48 49 50

282
ASUS43 KTOP 030859
RWRKS

WEATHER ROUNDUP FOR KANSAS
NATIONAL WEATHER SERVICE GOODLAND KS
300 AM CST SAT DEC 03 2016

NOTE:  "FAIR" INDICATES FEW OR NO CLOUDS BELOW 12,000 FEET WITH NO
SIGNIFICANT WEATHER AND/OR OBSTRUCTIONS TO VISIBILITY.

KSZ001>006-013>018-027>032-041>047-031000-
NORTHWEST KANSAS

CITY           SKY/WX    TMP DP  RH WIND       PRES   REMARKS
GOODLAND       CLOUDY    30  20  66 S8        30.20
HAYS           CLOUDY    34  26  72 NE5       30.26F
HILL CITY      CLOUDY    29  24  82 CALM      30.27
RUSSELL        CLOUDY    32  26  78 NE6       30.25
$$

KSZ061>065-074>080-084>089-031000-
SOUTHWEST KANSAS

CITY           SKY/WX    TMP DP  RH WIND       PRES   REMARKS
DODGE CITY     LGT SNOW  33  32  96 S5        30.25  FOG
ELKHART          N/A     31  24  75 CALM        N/A
GREAT BEND     CLOUDY    36  25  64 CALM      30.27F
$$

KSZ066>073-081>083-090>101-031000-
SOUTHEAST KANSAS

CITY           SKY/WX    TMP DP  RH WIND       PRES   REMARKS
CHANUTE        CLOUDY    43  27  53 NE10      30.27
NEWTON         CLOUDY    36  26  67 E9        30.27F
WICHITA INTL   CLOUDY    43  27  53 NE8       30.26
WICHITA JABRA  CLOUDY    39  28  64 NE7       30.26
$$

KSZ007>012-019>026-033>040-048>060-102>105-031000-
NORTHEAST KANSAS

CITY           SKY/WX    TMP DP  RH WIND       PRES   REMARKS
CONCORDIA      PTCLDY    27  24  89 SE5       30.30F
EMPORIA        CLOUDY    35  28  75 NE8       30.29
LAWRENCE       CLOUDY    32  28  85 NE3       30.34
MANHATTAN      CLOUDY    31  26  82 NE5       30.32
OLATHE IND     CLOUDY    33  28  81 NE6       30.33
OLATHE EXE     CLOUDY    34  27  75 NE6       30.33
SALINA         CLOUDY    37  27  67 NE6       30.30
TOPEKA BILLARD CLOUDY    30  24  78 CALM      30.34
TOPEKA FORBES  MOCLDY    31  27  85 N3        30.33
$$




USA.gov is the U.S. government's official web portal to all federal, state and local government web resources and services.